Location: Unspecified
(0.0000°N, 0.0000°E)
Time: 14:03:20
(UTC+00:00)

Hubble Space Telescope - Pass Details

Date: 09 October 2024
Orbit: 503 x 507 km, 28.5° (Epoch: 13 October)

Event Time Altitude Azimuth Distance (km) Brightness Sun altitude
Rises 18:52:50 0° 249° (WSW) 2,591 5.8 -16.3°
Reaches altitude 10° 18:55:06 10° 254° (WSW) 1,706 4.6 -16.9°
Maximum altitude 18:58:55 49° 330° (NNW) 652 1.3 -17.8°
Enters shadow 19:00:32 29° 28° (NNE) 935 1.7 -18.2°
